This demonstration page uses our WeatherBlox Daily Observations layout. Learn more.

Left ArrowRight Arrow

Hourly Observations for February 3, 2015

Temp ( °F °C ) Dew Point ( °F °C ) Humidity (%) Winds ( mph kmh ) Pressure ( in mb ) Visibility ( mi km ) Precip ( " mm )
12:15 am 00:15 Clear 19 -7 19 -7 100 100 NNW 5 7 30.21 1023 7 11 0.00 0.00
12:35 am 00:35 Clear 18 -8 16 -9 93 93 NW 6 9 30.24 1024 10 16 0.00 0.00
12:55 am 00:55 Clear 18 -8 16 -9 93 93 WNW 6 9 30.24 1024 10 16 0.00 0.00
1:15 am 01:15 Clear 19 -7 18 -8 93 93 Calm 30.21 1023 10 16 0.00 0.00
1:35 am 01:35 Clear 18 -8 12 -11 79 79 Calm 30.18 1022 10 16 0.00 0.00
1:55 am 01:55 Clear 18 -8 16 -9 93 93 Calm 30.18 1022 10 16 0.00 0.00
2:15 am 02:15 Clear 18 -8 16 -9 93 93 Calm 30.18 1022 10 16 0.00 0.00
2:55 am 02:55 Clear 16 -9 14 -10 93 93 S 3 6 30.21 1023 10 16 0.00 0.00
3:15 am 03:15 Clear 18 -8 14 -10 86 86 Calm 30.15 1021 5 8 0.00 0.00
3:35 am 03:35 Clear 18 -8 16 -9 93 93 Calm 30.15 1021 5 8 0.00 0.00
3:55 am 03:55 Mostly Cloudy 18 -8 16 -9 93 93 Calm 30.12 1020 1 1 0.00 0.00
4:15 am 04:15 Cloudy 16 -9 14 -10 93 93 Calm 30.15 1021 0 0 0.00 0.00
4:35 am 04:35 Cloudy 16 -9 14 -10 93 93 Calm 30.15 1021 2 2 0.00 0.00
4:55 am 04:55 Mostly Cloudy 16 -9 12 -11 86 86 ESE 5 7 30.09 1019 6 10 0.00 0.00
5:15 am 05:15 Mostly Cloudy 16 -9 14 -10 93 93 SE 5 7 30.09 1019 7 11 0.00 0.00
5:35 am 05:35 Mostly Cloudy 18 -8 14 -10 86 86 SE 5 7 30.09 1019 7 11 0.00 0.00
5:55 am 05:55 Mostly Cloudy 18 -8 16 -9 93 93 SSE 6 9 30.09 1019 10 16 0.00 0.00
6:15 am 06:15 Mostly Cloudy 19 -7 18 -8 93 93 SSE 9 15 30.06 1018 10 16 0.00 0.00
6:35 am 06:35 Mostly Clear 19 -7 18 -8 93 93 SSE 10 17 30.06 1018 10 16 0.00 0.00
6:55 am 06:55 Clear 19 -7 18 -8 93 93 SSE 10 17 30.06 1018 10 16 0.00 0.00
7:15 am 07:15 Clear 19 -7 18 -8 93 93 S 12 19 30.06 1018 10 16 0.00 0.00
7:35 am 07:35 Clear 21 -6 18 -8 86 86 S 10 17 30.00 1016 10 16 0.00 0.00
7:55 am 07:55 Partly Cloudy 21 -6 18 -8 86 86 SSE 9 15 30.00 1016 10 16 0.00 0.00
8:15 am 08:15 Mostly Sunny 21 -6 18 -8 86 86 S 9 15 30.00 1016 10 16 0.00 0.00
8:35 am 08:35 Sunny 21 -6 19 -7 93 93 S 10 17 30.00 1016 10 16 0.00 0.00
8:55 am 08:55 Partly Cloudy 25 -4 19 -7 80 80 S 12 19 30.00 1016 10 16 0.00 0.00
9:15 am 09:15 Cloudy 27 -3 23 -5 86 86 Calm 29.97 1015 10 16 0.00 0.00
9:35 am 09:35 Partly Cloudy 28 -2 25 -4 86 86 Calm 29.97 1015 10 16 0.00 0.00
9:55 am 09:55 Sunny 30 -1 27 -3 86 86 SSW 9 15 29.97 1015 10 16 0.00 0.00
10:15 am 10:15 Sunny 30 -1 27 -3 86 86 WSW 7 11 29.97 1015 10 16 0.00 0.00
10:35 am 10:35 Sunny 34 1 28 -2 81 81 SW 7 11 29.94 1014 10 16 0.00 0.00
10:55 am 10:55 Sunny 36 2 28 -2 75 75 WSW 8 13 29.94 1014 10 16 0.00 0.00
11:15 am 11:15 Sunny 37 3 28 -2 70 70 W 8 13 29.97 1015 10 16 0.00 0.00
11:35 am 11:35 Sunny 39 4 28 -2 65 65 W 7 11 29.91 1013 10 16 0.01 0.25
11:55 am 11:55 Sunny 41 5 30 -1 66 66 W 7 11 29.91 1013 10 16 0.03 0.76
12:15 pm 12:15 Sunny 41 5 30 -1 66 66 WNW 7 11 29.91 1013 10 16 0.00 0.00
12:35 pm 12:35 Sunny 43 6 34 1 71 71 W 8 13 29.91 1013 10 16 0.01 0.25
12:55 pm 12:55 Sunny 43 6 32 0 66 66 W 7 11 29.91 1013 10 16 0.01 0.25
1:15 pm 13:15 Sunny 45 7 34 1 66 66 WNW 8 13 29.91 1013 10 16 0.00 0.00
1:35 pm 13:35 Sunny 45 7 34 1 66 66 WNW 7 11 29.91 1013 10 16 0.00 0.00
1:55 pm 13:55 Sunny 46 8 36 2 66 66 WNW 6 9 29.88 1012 10 16 0.00 0.00
2:15 pm 14:15 Sunny 46 8 36 2 66 66 WNW 7 11 29.88 1012 10 16 0.00 0.00
2:35 pm 14:35 Sunny 46 8 36 2 66 66 WNW 8 13 29.88 1012 10 16 0.00 0.00
2:55 pm 14:55 Sunny 48 9 36 2 62 62 NW 7 11 29.88 1012 10 16 0.00 0.00
3:15 pm 15:15 Sunny 48 9 36 2 62 62 NW 6 9 29.88 1012 10 16 0.00 0.00
3:35 pm 15:35 Sunny 48 9 37 3 66 66 NW 6 9 29.88 1012 10 16 0.00 0.00
3:55 pm 15:55 Sunny 50 10 37 3 62 62 NW 5 7 29.88 1012 10 16 0.00 0.00
4:15 pm 16:15 Sunny 50 10 37 3 62 62 NNW 5 7 29.88 1012 10 16 0.00 0.00
4:35 pm 16:35 Sunny 50 10 36 2 58 58 NNW 6 9 29.91 1013 10 16 0.00 0.00
4:55 pm 16:55 Sunny 48 9 36 2 62 62 NNW 5 7 29.91 1013 10 16 0.00 0.00
5:15 pm 17:15 Sunny 46 8 36 2 66 66 Calm 29.91 1013 10 16 0.00 0.00
5:35 pm 17:35 Sunny 45 7 37 3 76 76 Calm 29.94 1014 10 16 0.00 0.00
5:55 pm 17:55 Sunny 43 6 36 2 76 76 Calm 29.94 1014 10 16 0.00 0.00
6:15 pm 18:15 Clear 39 4 34 1 81 81 Calm 30.00 1016 10 16 0.00 0.00
6:35 pm 18:35 Clear 37 3 32 0 81 81 ENE 6 9 30.00 1016 10 16 0.00 0.00
6:55 pm 18:55 Clear 36 2 30 -1 81 81 NNE 8 13 30.00 1016 10 16 0.00 0.00
7:15 pm 19:15 Clear 37 3 30 -1 75 75 NE 12 19 30.03 1017 10 16 0.00 0.00
7:35 pm 19:35 Clear 36 2 30 -1 81 81 NE 14 22 30.03 1017 10 16 0.00 0.00
7:55 pm 19:55 Clear 34 1 30 -1 87 87 NE 9 15 30.03 1017 10 16 0.00 0.00
8:15 pm 20:15 Clear 34 1 28 -2 81 81 ENE 5 7 30.09 1019 10 16 0.00 0.00
8:35 pm 20:35 Mostly Clear 34 1 28 -2 81 81 NE 10 17 30.09 1019 10 16 0.00 0.00
8:55 pm 20:55 Mostly Cloudy 34 1 28 -2 81 81 NNE 9 15 30.09 1019 10 16 0.00 0.00
9:15 pm 21:15 Cloudy 34 1 30 -1 87 87 NNE 10 17 30.12 1020 10 16 0.00 0.00
9:35 pm 21:35 Cloudy 34 1 28 -2 81 81 NNE 12 19 30.12 1020 10 16 0.00 0.00
9:55 pm 21:55 Cloudy 34 1 28 -2 81 81 NE 9 15 30.09 1019 10 16 0.00 0.00
10:15 pm 22:15 Mostly Cloudy 34 1 28 -2 81 81 NNE 9 15 30.12 1020 10 16 0.00 0.00
10:35 pm 22:35 Cloudy 34 1 28 -2 81 81 NNE 9 15 30.12 1020 10 16 0.00 0.00
10:55 pm 22:55 Cloudy 32 0 28 -2 87 87 NNE 9 15 30.12 1020 10 16 0.00 0.00
11:15 pm 23:15 Cloudy 32 0 28 -2 87 87 NE 12 19 30.12 1020 10 16 0.00 0.00
11:35 pm 23:35 Mostly Cloudy 30 -1 27 -3 86 86 NNE 10 17 30.15 1021 10 16 0.00 0.00
11:55 pm 23:55 Mostly Clear 30 -1 25 -4 80 80 NNE 13 20 30.15 1021 10 16 0.00 0.00

Powered by AerisWeather